RH
98 98 97 96 93 89 86 86 89 88 79 80 86 78 65 59 61 70 70 59 51 51 53 51 54 61 61 64 66 59 58 43 21 40 75 80 55 24 15 19 14 13 13 12 15 15 17 20 21 26 29 32 35 37 42 45 46 47 46 45 45 44 45 44 43 44 43 44 43 42 43 42 43 43
94 94 94 95 91 87 85 87 93 95 87 82 81 78 70 61 60 67 70 64 53 48 52 51 51 57 57 62 60 51 53 41 32 52 66 74 71 33 11 17 12 11 14 14 18 19 21 25 27 32 35 37 40 42 45 47 46 47 45 45 46 44 45 44 43 44 42 42 42 41 42 42 42 42
90 91 92 92 91 90 90 90 94 98 92 83 77 75 75 69 65 65 68 71 63 52 52 49 48 53 53 58 54 47 54 42 32 55 63 63 63 32 10 14 12 12 15 16 22 23 25 30 31 35 38 40 44 45 47 47 46 46 45 45 45 44 45 45 44 45 43 42 42 41 42 42 42 43
90 90 90 91 93 93 91 86 88 95 94 88 83 77 78 75 69 70 74 80 73 59 56 50 48 52 50 53 51 47 56 43 26 47 61 56 51 35 22 15 9 14 19 18 24 27 28 33 34 37 40 43 46 46 47 47 45 46 45 44 45 44 45 44 44 44 44 43 43 42 42 42 42 43
91 88 86 90 93 92 91 86 85 91 91 92 89 80 79 74 65 68 77 80 72 60 56 53 48 50 50 48 45 44 54 48 30 39 54 54 47 41 40 29 12 13 20 22 26 29 32 35 36 39 41 43 45 45 46 46 45 45 44 44 44 43 44 44 43 43 43 43 43 43 43 42 42 42
91 90 86 87 91 92 93 87 81 85 88 90 89 81 77 69 59 64 72 71 66 61 57 53 50 53 49 43 41 43 51 53 43 40 49 53 44 37 42 43 28 16 18 24 28 30 34 36 37 40 40 42 44 44 44 44 43 44 43 43 43 42 42 42 42 42 42 42 43 42 42 42 42 42
90 92 88 85 88 92 93 88 80 82 86 84 79 73 69 63 58 62 65 62 60 58 54 51 50 53 49 40 40 42 47 53 48 38 41 46 41 35 38 44 40 26 17 22 28 30 34 36 37 39 39 40 41 41 42 42 41 41 40 40 41 40 40 40 40 41 41 41 42 42 43 43 43 43
87 91 90 86 86 90 91 89 82 79 80 78 74 69 63 62 67 69 65 64 61 51 46 47 46 46 46 43 40 40 44 51 48 38 37 38 34 35 36 35 38 34 22 19 25 28 31 34 36 37 37 38 38 39 39 39 39 38 37 37 37 37 37 38 38 40 40 41 41 40 41 41 41 42
86 89 91 88 87 89 90 86 80 74 71 70 69 65 58 59 69 74 69 68 65 51 42 42 39 37 40 40 38 39 41 45 45 38 35 34 31 32 34 29 30 34 26 18 20 25 28 30 32 33 34 34 34 34 35 35 35 34 34 33 33 34 35 35 36 37 36 36 37 38 40 41 42 43
87 86 88 89 88 90 90 85 78 73 70 67 64 60 56 56 65 73 72 66 60 53 43 37 36 37 36 35 37 38 36 36 37 35 33 33 30 31 34 32 30 32 29 19 15 19 24 25 26 27 27 27 27 28 28 28 29 29 29 30 30 31 32 32 32 33 34 37 40 42 45 45 47 48
88 86 86 87 87 88 89 84 79 76 73 71 68 64 64 66 69 73 77 71 59 52 46 39 38 37 34 35 36 34 34 34 33 33 33 32 31 32 36 37 34 34 33 27 19 15 17 19 20 21 21 22 22 23 24 24 26 27 27 27 28 28 30 32 36 40 44 49 52 53 54 54 54 55
89 89 87 86 86 86 86 84 81 79 76 74 73 72 74 78 77 75 79 77 63 52 48 43 41 38 34 36 35 31 33 36 33 31 31 30 30 31 35 37 36 34 35 34 28 22 18 18 19 20 22 23 23 23 24 24 25 26 26 28 32 35 41 46 51 56 60 62 63 64 64 65 65 65
87 89 91 90 89 88 89 88 86 84 81 78 80 84 86 86 84 80 80 76 67 60 54 46 41 39 36 35 36 36 35 34 33 32 32 31 29 28 31 34 35 34 34 33 30 28 28 27 26 26 26 27 29 30 31 33 35 38 41 46 51 55 59 62 63 64 65 65 66 66 67 68 68 69
86 88 93 95 94 92 92 92 90 90 88 86 87 91 91 87 85 85 84 79 73 70 65 56 49 45 43 38 37 40 38 34 33 32 33 34 29 26 30 33 35 36 34 32 31 29 31 33 33 32 31 33 38 42 46 52 55 57 59 62 64 64 63 62 61 61 62 63 64 65 66 66 66 66
85 87 92 95 96 95 95 94 93 94 93 92 91 91 91 91 89 88 86 83 79 73 68 65 59 55 52 44 38 40 40 39 39 36 36 36 29 27 31 32 36 41 37 35 34 30 34 39 36 34 34 38 49 57 61 63 63 63 63 61 58 56 54 54 56 58 61 62 62 61 59 57 56 54
83 85 90 93 94 95 98 98 96 96 97 96 95 92 91 93 95 92 87 84 82 76 67 61 58 55 53 47 42 40 39 42 47 42 39 36 30 31 33 27 34 48 47 42 39 34 41 48 43 40 44 51 63 69 67 65 62 55 51 48 46 47 50 54 58 60 60 58 55 52 49 47 46 46
82 85 89 92 92 92 96 96 94 96 99 99 97 96 94 94 96 94 89 86 85 81 73 65 60 58 56 54 53 50 45 48 53 47 42 42 37 34 32 29 42 56 52 45 42 38 46 56 51 49 56 63 70 74 72 67 57 46 42 44 48 52 55 57 57 53 50 46 44 42 41 41 44 46
82 86 89 89 89 89 91 92 91 92 96 99 100 99 96 95 96 95 93 91 88 85 82 80 78 75 74 74 71 66 59 56 55 49 43 43 42 43 45 51 61 64 57 54 51 43 50 63 59 55 60 66 68 69 67 61 51 45 45 48 51 54 53 49 43 37 33 33 34 36 40 44 48 50
82 83 86 86 86 87 87 88 90 88 88 94 96 92 89 89 90 91 93 93 91 88 88 90 89 87 86 83 77 72 67 61 60 58 53 51 55 60 62 63 65 66 67 69 62 50 54 64 62 57 61 66 66 59 54 52 51 51 53 56 59 56 46 35 28 25 27 31 35 41 45 49 51 52
81 80 81 81 83 86 87 89 92 87 82 84 86 84 84 85 84 84 84 85 86 86 84 84 83 82 82 81 76 69 66 67 69 66 62 62 63 59 55 57 61 66 70 71 67 61 60 65 69 65 58 59 59 50 47 56 62 59 60 63 59 49 36 28 26 29 35 40 44 47 49 51 53 53
81 85 86 81 81 85 86 89 96 92 82 80 80 80 81 79 77 75 73 74 76 78 78 78 78 78 76 74 69 62 59 65 67 59 55 59 57 49 48 53 60 67 70 67 65 63 59 62 70 66 53 49 49 41 43 61 68 61 58 59 54 47 42 37 37 42 47 51 53 53 54 55 54 54
80 87 90 85 84 86 84 89 98 95 83 76 77 77 77 76 76 74 69 67 69 71 73 72 72 72 71 69 67 64 64 67 65 61 60 59 56 54 55 56 58 67 73 67 59 58 55 52 55 55 45 37 37 38 44 56 61 57 57 60 61 63 61 54 51 54 55 58 59 55 55 56 53 58
82 90 93 89 86 86 86 91 96 90 78 73 73 73 71 71 74 74 71 68 69 71 71 69 68 68 69 69 67 67 69 68 65 64 63 61 60 59 61 62 58 63 74 69 54 52 53 45 43 46 39 27 27 40 49 52 52 55 60 64 65 66 65 61 61 64 64 64 64 59 56 54 51 60
79 88 95 94 91 89 88 89 85 78 72 71 69 69 68 70 73 76 77 76 77 78 74 70 69 68 67 66 63 61 64 63 60 59 56 57 60 55 54 56 49 54 75 73 49 44 49 43 41 45 42 32 30 38 46 48 50 56 62 64 62 61 62 61 61 62 61 62 66 65 61 58 54 60
78 84 90 93 93 88 82 77 73 71 71 71 70 69 68 69 72 76 79 79 78 76 71 68 69 68 66 65 62 59 59 54 51 52 51 54 59 55 55 53 43 52 76 66 39 42 52 47 45 48 46 43 39 38 43 47 51 56 60 61 60 59 59 59 58 57 55 55 62 65 64 63 62 64
86 87 86 86 86 81 73 69 69 72 75 75 74 73 70 69 71 73 74 72 68 66 63 61 62 62 63 64 62 60 61 59 55 53 48 48 51 52 56 59 55 66 74 51 32 49 61 55 54 53 47 47 46 42 44 48 51 56 57 57 58 58 56 55 54 53 53 54 58 63 64 66 67 68
89 89 86 82 78 74 70 70 70 72 75 75 74 74 71 71 72 70 67 64 60 58 58 57 57 56 56 58 59 62 67 68 62 54 46 45 47 45 46 53 62 75 77 57 46 61 68 61 63 63 56 53 50 44 45 48 52 55 56 55 57 55 52 51 50 51 54 54 55 57 60 66 70 72
86 89 89 85 81 77 74 73 71 71 74 75 74 74 72 70 69 67 64 64 62 61 62 63 63 63 63 65 67 68 68 64 57 53 53 56 60 56 49 47 47 55 67 70 67 70 70 66 67 69 67 62 54 49 50 51 51 53 53 53 54 52 49 48 48 50 52 52 50 50 55 65 74 77
90 92 90 88 85 81 77 74 72 71 72 72 71 68 65 64 66 66 65 64 63 63 64 65 66 69 72 72 71 69 69 66 62 59 59 59 60 59 57 56 53 54 65 74 73 71 72 72 71 71 68 62 57 55 54 52 50 50 49 50 50 48 45 44 47 51 54 54 53 55 62 73 81 84
91 89 86 84 83 81 76 72 70 70 69 68 65 62 58 57 58 61 62 63 64 66 67 67 68 70 70 66 64 66 69 71 72 70 67 65 66 66 66 68 71 73 75 75 71 69 72 74 74 73 67 58 54 54 54 52 49 44 43 46 46 43 43 47 52 57 63 65 64 67 76 84 88 91
86 85 84 83 82 81 79 76 75 73 71 68 65 63 61 58 56 57 58 61 66 71 72 72 72 72 71 69 69 71 70 68 71 72 68 65 68 70 68 67 70 74 76 74 72 72 73 73 71 69 65 58 54 53 53 51 46 42 43 47 48 46 49 55 60 65 71 73 72 75 83 88 90 92
83 81 80 79 78 77 76 75 74 73 70 68 65 62 61 59 57 55 52 55 65 70 71 73 75 74 73 71 71 73 74 73 74 75 70 66 66 66 65 62 62 66 68 68 69 69 70 71 69 64 63 64 62 59 53 46 44 47 50 52 52 52 57 62 65 70 75 75 73 75 81 86 88 91
84 83 83 84 83 83 81 79 77 74 72 70 69 66 63 60 58 54 50 52 60 64 65 71 77 78 78 77 75 75 78 79 79 78 75 71 67 63 59 56 55 57 58 58 62 64 64 66 68 68 69 69 67 63 56 48 47 52 55 56 55 56 61 67 69 72 76 76 73 72 75 81 87 93
90 92 95 96 96 95 94 93 90 86 82 79 78 75 72 67 63 61 58 58 61 60 57 61 68 73 78 82 81 80 79 79 80 79 77 73 69 64 61 58 57 58 57 56 58 61 60 60 62 69 76 76 74 73 66 56 55 58 58 59 62 62 65 68 69 70 73 75 74 72 71 76 86 95
97 98 99 100 100 99 99 99 97 95 91 87 85 82 78 74 70 68 67 67 66 64 63 63 65 68 75 82 84 84 84 82 80 78 74 71 69 67 65 62 60 59 59 58 58 58 57 54 51 54 63 66 69 75 74 65 62 65 64 63 66 69 69 69 67 67 69 71 74 74 72 75 82 90
100 100 99 100 100 99 99 99 98 97 95 91 89 85 82 80 76 73 72 71 69 68 71 75 77 78 80 83 85 86 85 83 81 78 74 72 69 66 65 64 63 60 57 56 56 54 53 51 47 44 46 45 44 56 71 72 68 68 69 69 70 72 72 70 66 65 68 71 74 74 73 74 78 83
99 100 100 100 100 99 100 100 99 99 98 96 94 91 87 85 82 77 73 70 67 67 71 75 79 82 83 83 82 82 81 79 77 75 73 70 67 65 64 63 60 57 54 53 54 53 52 53 52 48 47 40 32 39 62 77 75 71 74 77 76 75 74 71 65 64 69 73 74 74 73 72 76 84
98 100 100 100 100 99 100 99 99 99 98 96 94 93 92 91 89 85 79 74 73 75 78 80 82 83 82 78 74 74 73 72 70 71 71 69 66 63 62 59 57 55 52 50 50 52 53 55 55 52 52 50 42 42 55 68 71 71 76 82 82 77 73 70 67 66 69 73 73 71 72 72 75 81
95 97 98 99 100 99 98 98 97 97 96 94 93 93 93 93 91 88 84 82 83 83 83 82 81 81 79 75 71 70 69 66 64 65 66 66 65 62 60 57 54 53 51 49 47 47 48 50 53 56 57 58 58 58 61 63 66 70 76 82 84 80 75 74 72 67 67 70 67 65 70 76 80 84
90 93 95 96 95 95 94 94 93 91 90 89 88 88 88 87 85 82 80 80 79 78 76 76 76 75 74 71 68 66 66 64 63 63 62 61 60 61 59 55 51 49 49 48 46 45 47 52 60 65 66 66 68 73 74 69 65 67 71 74 78 79 79 81 78 68 64 63 57 53 58 65 70 78
84 86 88 89 89 90 90 89 86 85 85 85 84 83 80 78 77 76 76 75 71 68 68 70 70 70 69 67 61 57 56 56 56 58 58 56 56 57 56 52 48 46 45 46 48 50 54 62 70 73 72 72 73 72 68 61 56 58 63 67 71 74 74 74 74 70 67 64 56 49 50 53 54 57
78 78 80 82 83 83 83 81 81 81 80 79 78 76 74 73 70 67 68 70 67 62 61 61 61 60 59 59 56 53 52 52 52 52 52 51 51 51 49 47 47 45 43 45 50 55 58 65 70 69 67 68 66 61 56 54 55 57 59 60 66 73 74 71 69 68 67 66 64 60 58 57 54 51
74 73 74 76 76 76 75 74 74 74 73 72 71 70 69 67 64 60 60 61 59 57 56 55 55 55 53 53 52 50 49 50 50 50 50 49 47 46 46 47 48 45 42 43 49 53 56 62 66 64 61 62 62 59 58 59 59 58 58 58 61 67 70 71 71 70 67 69 71 71 69 68 65 61
74 69 68 70 70 69 69 68 67 67 67 67 67 65 62 60 59 58 57 56 56 56 56 55 54 54 53 52 51 49 49 50 49 47 47 46 46 46 47 47 45 43 43 44 46 48 52 58 61 61 61 62 62 61 62 62 61 59 61 63 63 62 62 66 70 71 71 73 75 74 74 74 72 72
73 66 65 66 65 64 64 64 64 63 62 61 59 58 57 57 58 57 57 57 57 57 56 55 54 54 53 51 50 49 50 50 48 46 45 44 43 45 47 45 42 42 45 45 44 44 47 51 54 57 59 60 60 59 61 63 63 61 63 66 64 61 59 60 61 63 67 73 74 73 73 74 73 74
Wind_Speed
15 15 17 17 17 15 14 15 13 13 16 16 15 15 15 13 8 6 7 8 11 15 15 14 14 15 14 13 13 13 12 12 14 13 10 9 10 12 13 12 12 12 12 12 12 12 12 12 11 11 11 11 10 9 9 8 7 5 4 2 1 0 1 2 3 4 5 5 6 7 7 8 8 9
16 16 15 15 14 13 12 12 12 12 15 16 14 13 15 15 11 8 8 7 10 15 15 14 14 16 16 14 13 14 12 13 14 13 11 10 10 12 13 14 14 14 14 14 13 13 13 13 13 12 12 11 10 9 9 7 6 4 3 2 2 3 3 4 4 4 5 6 7 8 8 9 9 10
16 14 14 14 13 13 13 13 13 12 14 16 16 14 15 16 15 10 6 5 7 12 14 14 14 16 17 15 14 14 12 14 15 12 10 11 12 12 13 15 15 15 15 15 15 14 14 14 14 13 12 12 11 10 9 8 6 5 5 4 5 5 6 6 7 7 8 8 9 10 11 11 12 12
15 14 15 15 14 13 15 16 15 13 13 15 17 17 16 16 15 10 4 4 7 11 12 13 13 15 17 15 14 15 12 13 16 13 10 12 13 12 13 16 17 17 17 17 16 16 16 15 15 14 14 13 12 11 10 9 8 7 7 7 7 8 8 9 10 10 11 12 12 13 14 14 15 15
15 14 15 14 15 14 14 16 16 15 14 14 16 16 17 18 15 10 8 7 9 9 10 13 13 14 16 15 15 15 13 13 16 14 11 12 13 12 12 15 17 19 19 18 18 18 17 17 16 15 14 14 13 13 12 11 10 10 10 10 10 11 11 12 13 13 14 15 16 17 17 18 18 19
14 14 15 14 14 14 14 16 16 15 14 13 14 15 17 18 15 14 15 13 11 10 9 12 14 14 16 15 15 16 14 13 15 15 13 12 13 13 12 13 16 19 20 19 19 19 18 17 17 16 15 15 14 14 14 13 12 12 12 12 13 13 14 15 16 17 18 18 20 21 21 22 23 23
14 14 15 15 14 14 14 15 15 15 15 16 17 19 19 18 15 14 15 12 10 11 11 13 14 15 15 15 14 16 15 14 15 15 14 13 13 13 13 12 13 17 20 20 19 19 19 18 17 17 16 16 16 16 15 15 14 14 14 15 15 16 17 18 19 20 21 22 23 24 25 26 27 27
14 14 15 15 15 14 14 15 16 16 17 18 21 22 19 16 14 12 11 10 9 10 11 13 15 15 15 15 14 15 15 14 14 15 14 14 14 13 14 13 12 14 18 20 19 19 19 18 18 18 17 17 17 17 16 16 16 16 16 17 18 19 20 21 22 23 25 26 27 29 30 30 30 31
14 14 14 15 15 15 14 15 16 17 17 18 19 19 18 16 15 14 12 11 12 11 10 13 14 13 15 15 14 14 15 14 14 15 14 14 14 14 14 14 13 15 18 19 20 20 19 19 18 18 18 17 17 18 17 17 17 18 18 19 20 21 22 24 25 27 28 29 30 31 31 31 31 31
14 14 14 15 15 16 15 15 15 16 17 18 17 17 18 15 14 16 14 13 14 13 10 12 13 12 14 15 14 14 16 15 15 15 14 14 14 14 14 13 13 14 16 18 21 21 20 20 19 18 18 18 18 19 19 19 19 20 20 21 22 23 25 26 27 29 29 29 29 29 29 29 28 28
14 14 15 15 15 16 15 15 15 16 17 18 18 18 17 14 14 19 15 12 14 14 11 12 13 13 13 14 14 14 16 15 14 15 15 14 14 14 14 14 13 13 14 16 19 21 20 20 19 19 19 19 20 20 20 20 20 21 22 23 24 25 26 26 26 25 25 24 23 23 23 23 23 23
14 14 15 15 15 16 16 16 16 16 17 18 19 19 17 14 14 18 16 11 11 13 14 14 13 14 14 14 14 14 15 15 15 15 14 14 15 15 15 15 14 14 13 14 16 18 19 20 20 20 20 20 20 20 20 21 21 22 22 22 22 22 22 21 20 19 19 18 18 19 19 20 20 21
15 14 14 14 15 15 16 17 17 17 18 18 17 17 15 13 12 14 19 18 12 9 11 14 13 14 14 15 15 15 16 17 16 15 14 13 13 14 14 14 15 15 14 14 14 14 16 17 17 18 18 17 17 17 16 16 16 16 16 16 15 15 15 15 15 16 16 17 17 18 18 19 20 20
15 14 14 14 15 17 17 18 19 19 19 19 16 14 14 15 13 11 18 19 15 9 9 11 11 11 12 15 16 16 16 17 16 15 15 15 14 13 12 12 13 14 14 13 13 13 13 13 14 14 14 13 11 10 8 8 9 10 11 11 11 12 13 14 15 15 16 16 16 16 17 17 18 19
15 14 13 13 15 17 17 17 19 21 20 19 17 15 15 14 12 11 14 18 19 19 16 13 13 13 13 15 16 16 16 16 17 17 16 16 16 14 12 11 11 13 13 12 11 11 11 11 11 11 10 9 7 5 7 9 9 9 9 10 11 12 13 14 14 14 14 14 15 15 16 17 18 19
14 13 13 13 13 14 15 14 16 19 20 18 17 17 16 14 12 13 16 18 18 20 18 16 17 17 17 17 16 17 17 15 16 17 16 16 16 15 15 14 10 10 11 10 10 10 9 8 9 9 7 6 5 5 7 8 8 9 10 11 11 11 12 12 12 12 13 14 15 17 18 19 20 21
13 13 13 13 12 12 14 14 13 14 16 17 17 16 16 16 15 15 16 17 18 18 17 17 17 15 14 14 14 14 15 14 14 16 15 15 15 15 15 13 8 9 10 9 7 9 8 6 6 6 6 5 3 4 8 9 9 9 9 9 9 9 10 10 11 13 15 17 18 20 21 21 21 22
12 13 13 13 13 12 13 15 14 12 13 14 14 13 11 12 14 14 15 17 19 20 18 14 12 9 5 6 8 8 10 11 10 12 13 12 12 11 9 7 7 7 7 6 6 8 8 6 5 5 4 3 1 4 8 10 11 10 8 8 8 9 10 12 15 17 18 19 20 20 21 21 22 23
12 13 13 13 13 13 13 15 16 15 13 12 12 12 10 10 11 13 14 15 16 18 17 12 12 12 8 7 8 6 5 7 7 7 8 8 9 10 9 8 6 5 4 4 5 7 5 4 4 3 2 2 2 5 9 10 9 9 9 8 8 10 13 15 17 18 18 18 19 19 20 21 22 23
12 12 12 13 13 13 14 16 18 17 15 14 14 13 11 11 11 12 14 15 13 14 16 14 17 20 17 14 14 10 6 7 8 7 8 8 10 11 10 9 7 6 4 5 3 3 2 2 2 4 4 3 3 5 7 7 7 8 8 9 10 13 15 16 15 15 16 17 18 19 20 21 22 23
11 12 13 13 12 12 14 17 19 20 18 15 15 15 12 11 9 8 9 10 10 11 14 16 16 18 16 14 12 10 9 11 11 9 9 9 10 11 10 10 9 5 3 3 2 0 2 2 3 6 7 6 6 6 6 5 5 8 9 11 13 14 13 13 12 13 15 16 17 19 20 20 21 22
9 14 17 15 11 12 15 17 19 20 17 14 15 16 15 13 13 12 13 13 13 12 13 13 13 12 11 9 9 9 11 14 12 9 9 8 7 6 5 6 7 6 3 2 1 1 3 3 3 4 6 7 7 5 4 3 4 7 7 9 11 12 14 14 12 13 14 15 17 18 18 19 19 18
7 11 18 19 15 14 15 16 18 18 15 13 15 17 17 16 16 17 18 19 19 18 17 17 17 17 16 14 14 14 14 13 10 9 11 9 6 5 5 5 5 5 4 4 3 2 2 2 2 2 5 6 5 3 2 2 4 5 5 6 8 11 14 15 14 14 14 15 17 18 17 17 17 15
7 7 13 16 14 12 14 17 20 20 17 14 15 16 16 17 18 17 16 17 17 18 19 20 20 18 17 16 15 14 13 11 8 8 10 9 8 6 5 5 5 3 4 6 7 3 1 2 2 2 4 5 4 3 3 4 5 5 5 6 7 10 11 12 12 13 14 16 17 18 19 19 17 13
7 6 8 11 11 12 17 22 23 21 19 16 15 14 15 19 22 20 18 18 18 18 19 18 17 16 15 15 14 13 12 10 9 8 8 10 11 10 7 5 3 3 4 5 6 3 1 3 3 3 4 5 6 5 5 5 5 4 6 7 8 9 9 9 10 10 13 16 15 17 20 21 19 15
9 8 9 11 12 15 19 21 20 19 19 18 16 15 18 22 23 20 18 17 15 14 14 13 13 13 13 13 13 12 11 11 10 9 9 10 10 11 11 8 6 5 4 3 4 4 2 2 2 2 3 4 4 5 5 4 3 3 6 7 7 9 9 9 9 9 11 13 13 15 19 19 19 18
10 11 12 12 13 16 16 16 15 15 15 16 16 18 22 24 22 18 16 13 12 12 12 12 12 11 11 11 11 10 9 9 10 10 9 9 8 7 9 9 8 8 7 3 3 3 1 1 1 1 2 3 4 4 3 3 3 4 6 6 7 8 8 8 10 10 11 11 12 14 16 16 17 19
16 17 17 14 13 14 14 13 14 14 15 17 20 22 24 23 19 16 14 13 12 12 11 11 12 11 10 10 9 9 9 9 10 11 10 10 10 9 8 8 7 7 7 5 4 3 2 1 1 0 1 2 3 3 3 3 3 4 5 6 7 8 8 9 9 10 11 11 11 13 13 13 14 14
23 23 23 21 21 21 19 19 20 21 21 22 23 23 23 20 16 14 14 14 14 14 13 12 12 12 11 11 11 11 11 10 9 10 10 10 10 10 9 9 7 7 7 6 4 3 2 2 1 1 1 2 2 3 4 4 4 4 5 6 7 7 8 9 9 10 11 11 12 12 12 10 11 10
25 25 26 27 27 27 27 27 27 26 24 21 20 18 18 17 16 15 15 16 16 15 14 13 13 12 12 13 12 11 10 9 8 8 7 8 8 8 8 8 8 7 6 6 5 4 3 3 2 2 2 2 2 2 4 5 6 5 5 7 8 8 8 9 10 10 11 11 11 11 10 8 8 8
27 27 27 28 27 27 27 28 27 25 23 20 19 17 15 14 14 14 15 17 17 16 15 14 14 14 13 13 12 10 9 8 8 7 6 6 6 6 6 7 7 6 6 5 5 5 4 3 2 2 3 3 2 3 4 5 6 6 6 7 7 8 8 8 9 9 10 11 10 9 9 8 7 6
26 26 27 27 26 25 26 26 25 23 23 22 21 20 19 17 15 14 15 17 18 17 17 16 14 13 13 13 12 10 9 9 8 7 6 6 5 5 5 6 6 6 6 5 4 4 5 3 2 2 2 2 2 3 5 5 5 5 6 6 6 6 7 7 8 8 9 9 8 8 8 7 7 6
21 22 23 23 23 23 23 24 23 22 21 21 21 20 20 19 17 16 16 17 17 17 18 17 14 12 12 13 12 10 9 8 7 6 6 5 5 5 5 5 5 4 4 4 3 3 3 3 2 2 3 2 2 4 5 5 4 4 5 6 6 6 6 6 7 8 8 8 7 8 7 7 7 6
16 18 19 19 18 18 19 20 19 18 18 18 17 17 16 16 16 16 17 17 16 15 16 16 15 13 13 11 10 8 7 6 6 6 6 6 6 6 6 6 5 4 3 3 3 3 3 2 0 2 4 3 2 3 4 4 4 5 5 5 5 5 6 6 6 7 7 7 8 7 7 8 8 6
16 16 16 16 15 15 16 16 16 16 16 17 17 16 15 15 15 15 15 15 14 14 14 14 14 13 13 11 9 8 7 6 5 5 5 6 6 7 6 6 5 4 3 3 3 3 3 3 2 2 4 6 5 4 5 5 5 5 5 5 5 5 6 6 6 7 7 7 7 7 7 7 7 6
13 12 12 12 12 12 13 13 13 14 15 16 16 16 15 15 14 14 14 13 13 13 13 13 12 12 11 10 9 8 7 6 5 5 5 6 6 6 6 5 4 4 4 3 3 3 2 3 3 3 3 5 5 4 5 6 7 7 5 5 5 5 6 7 7 7 7 7 7 7 6 7 8 8
9 9 9 9 8 9 10 11 12 13 13 14 14 14 14 13 13 13 13 13 13 14 14 14 14 12 10 9 9 8 7 6 5 5 5 5 5 6 6 5 4 4 4 3 3 3 3 3 3 4 4 4 4 1 6 6 6 6 5 4 5 6 6 7 7 6 6 6 6 6 7 7 8 8
6 6 7 6 6 6 8 9 10 11 11 12 12 12 11 9 9 11 12 13 13 13 13 13 12 11 9 8 7 7 7 6 6 6 5 5 5 5 6 5 4 4 4 3 3 3 3 3 3 4 4 3 4 3 2 2 3 5 6 6 5 5 6 6 6 6 6 5 4 5 6 6 7 8
5 5 5 6 5 6 6 7 8 8 8 9 10 9 9 9 9 11 13 13 12 11 11 11 11 9 8 8 7 7 7 7 7 7 6 6 6 5 5 5 5 4 4 4 3 3 3 3 3 4 4 3 3 3 3 3 3 3 5 7 7 6 6 6 6 6 5 5 5 3 2 3 5 6
6 5 5 5 5 6 6 7 7 8 9 10 10 10 10 10 11 11 12 11 11 11 11 11 10 9 8 8 8 8 8 8 7 7 7 6 6 5 4 4 4 4 5 5 4 4 4 4 5 4 2 2 2 1 1 2 3 3 4 6 9 9 7 5 5 6 6 5 6 4 2 2 3 3
6 6 6 6 6 7 7 8 9 10 10 11 11 10 10 10 10 11 11 10 10 10 10 10 9 9 8 8 7 7 8 7 7 6 6 6 6 6 4 4 4 5 4 5 5 4 4 4 5 4 2 2 2 2 1 2 4 5 5 5 7 9 8 6 5 5 6 7 7 6 5 4 4 3
6 6 6 6 7 8 9 10 10 11 10 10 10 10 10 11 12 13 12 11 10 10 10 9 9 8 8 7 7 7 7 7 6 6 5 5 5 5 5 5 5 4 4 4 5 4 4 4 4 3 2 1 2 3 3 4 4 5 4 3 3 4 6 6 6 7 7 8 9 8 7 6 5 5
5 5 5 7 8 9 10 11 11 10 10 10 10 9 10 10 11 10 10 9 9 9 9 8 8 8 7 7 7 6 7 6 6 6 5 5 4 4 5 5 4 3 3 4 5 4 5 5 5 4 3 3 3 2 3 3 3 3 4 4 3 2 2 4 6 6 6 7 8 8 7 6 6 5
5 4 5 7 9 10 11 10 10 10 9 9 8 8 8 8 8 7 8 8 8 8 8 7 7 7 6 6 6 6 6 6 5 4 4 4 4 4 4 3 3 3 4 4 4 5 6 6 5 5 5 5 4 3 3 3 3 4 4 4 3 3 3 2 3 4 4 5 6 7 5 5 5 5
5 5 7 9 9 10 10 9 9 9 9 8 8 7 7 7 7 7 7 7 7 7 6 6 6 5 5 5 6 5 5 4 4 4 4 4 4 4 3 2 3 4 4 4 4 5 6 5 5 5 5 4 3 4 3 3 4 4 4 3 3 4 4 4 4 4 2 1 4 7 6 5 5 5
Wind_Direction
226 230 233 232 233 230 222 221 228 226 223 234 245 228 209 205 192 169 188 200 191 187 186 184 183 184 181 178 180 176 179 191 184 175 179 186 197 194 184 184 184 183 184 183 185 181 177 177 176 177 175 171 176 178 176 175 168 164 168 172 186 66 26 23 20 13 9 1 353 350 348 348 349 348
227 229 234 233 230 229 224 220 223 225 225 230 233 231 224 216 207 192 185 193 194 184 185 189 183 183 181 176 178 176 184 196 184 179 187 186 200 203 189 187 188 187 187 185 186 185 181 182 182 182 182 181 185 189 190 192 190 193 205 230 258 286 306 316 328 331 334 335 332 330 329 328 329 330
228 228 231 230 226 224 219 217 222 224 226 228 226 232 236 224 220 222 185 166 199 191 187 193 184 179 180 178 176 175 183 195 185 180 188 194 207 209 196 193 192 189 190 187 188 189 186 187 188 189 190 189 193 199 202 208 213 224 239 255 269 281 289 294 299 303 307 312 314 316 316 316 316 317
223 224 227 224 219 220 217 216 221 221 219 222 223 228 238 231 222 223 198 154 194 199 189 189 185 179 179 179 178 175 179 192 189 181 187 202 211 206 199 201 197 192 192 190 191 193 193 194 195 196 197 198 201 207 213 220 227 240 251 262 271 278 284 288 292 296 299 301 304 306 307 308 309 308
218 221 224 221 216 216 216 216 216 214 211 215 223 227 232 231 219 208 213 191 172 183 188 187 187 179 177 181 183 180 179 188 191 185 188 203 205 197 199 207 205 199 196 194 195 197 198 199 200 202 203 205 209 215 221 229 236 247 256 264 272 278 284 288 291 294 296 297 299 300 301 302 302 302
216 218 220 221 217 211 213 216 212 209 207 206 217 226 227 227 216 204 216 207 166 164 186 189 184 179 181 186 186 186 185 185 189 190 191 197 198 195 198 205 210 209 203 199 200 201 203 204 204 207 209 212 217 222 228 235 242 251 260 268 274 280 284 288 291 293 295 296 296 297 297 297 298 298
212 215 218 220 216 210 211 216 212 208 208 204 207 216 219 220 215 207 216 217 186 173 181 189 186 180 186 193 190 190 190 185 189 194 195 196 197 200 201 201 213 218 212 207 207 206 208 210 210 212 215 219 224 230 235 242 249 257 265 271 276 281 285 288 291 293 294 295 295 295 295 294 294 294
210 213 218 219 216 212 211 215 215 212 212 211 211 214 213 210 210 209 207 213 217 197 178 187 192 184 186 196 194 190 190 189 192 196 197 199 199 202 205 204 213 226 221 213 213 214 214 216 218 219 222 226 231 237 242 248 254 260 267 273 278 282 286 288 291 292 294 295 295 295 295 293 292 291
211 213 217 218 216 214 212 214 214 213 214 216 217 218 216 207 203 204 200 202 219 218 186 183 193 186 184 194 196 192 190 190 195 199 201 202 202 203 207 207 212 229 230 220 218 221 221 223 225 227 230 234 238 243 248 253 258 264 269 274 279 282 286 289 292 294 295 295 294 293 292 291 290 288
211 215 216 219 217 213 214 214 213 214 214 217 221 221 221 217 197 186 189 200 213 217 200 185 187 186 184 190 193 195 196 194 196 200 201 204 205 203 206 207 208 222 231 229 225 225 227 229 231 234 237 241 245 248 253 257 262 267 271 276 281 285 289 291 291 292 291 291 290 290 289 288 287 286
209 213 215 217 217 215 216 216 214 214 213 216 221 221 224 226 198 179 184 205 212 213 209 192 187 190 191 190 192 195 199 202 201 199 200 204 206 205 208 211 209 212 222 229 231 232 233 236 238 241 242 245 249 253 257 261 265 271 276 280 284 285 286 287 287 287 287 288 288 288 289 289 288 288
206 208 212 216 217 217 218 217 216 216 216 218 223 223 223 225 204 180 178 199 214 214 214 205 194 193 192 194 197 195 195 203 207 204 203 206 206 206 210 213 214 213 212 219 229 234 237 239 242 245 246 249 252 255 260 266 270 274 276 278 279 279 280 282 284 286 288 290 292 293 294 295 294 294
207 205 208 212 217 218 218 218 216 216 217 216 221 226 224 229 226 189 177 190 206 213 215 210 202 199 197 196 198 195 196 204 209 207 209 213 212 208 209 212 215 214 213 215 220 223 226 230 234 239 245 251 256 260 266 270 270 269 270 271 273 276 280 284 287 291 293 295 297 298 299 299 298 297
208 207 207 208 212 216 218 219 218 218 218 214 218 224 217 224 232 191 166 177 190 204 228 225 210 206 209 206 200 199 204 209 213 212 211 215 216 211 208 207 207 210 214 215 217 218 216 218 225 232 236 242 250 255 251 242 249 264 273 279 283 285 288 291 292 294 295 297 298 299 300 301 301 302
208 208 207 205 209 214 217 220 219 219 219 218 220 222 216 219 224 198 172 175 189 207 223 226 213 207 215 218 209 206 209 210 213 215 211 212 217 214 211 210 198 197 206 212 219 222 213 213 229 238 235 226 215 204 204 217 243 272 283 285 288 289 290 290 291 293 295 297 300 302 304 306 307 307
208 206 205 203 205 209 211 214 217 216 218 219 220 220 219 222 222 209 192 182 191 208 216 217 216 211 213 218 215 214 215 211 212 216 213 215 216 210 215 221 201 178 191 204 216 221 211 214 236 243 233 213 193 204 228 245 267 283 288 288 288 287 287 288 291 295 300 303 306 308 308 309 308 308
206 202 203 202 201 205 206 204 206 209 212 215 216 218 223 228 231 224 205 193 197 208 215 218 217 213 216 224 225 221 214 207 207 212 211 212 214 213 221 224 189 159 179 194 213 224 213 209 232 231 211 197 196 238 256 275 292 296 295 293 287 286 289 294 299 303 306 307 308 308 308 308 308 308
203 199 201 200 198 202 204 201 198 199 203 206 209 210 211 218 228 228 219 215 211 209 214 217 211 208 206 206 215 211 195 194 205 211 210 210 209 205 199 180 141 143 178 192 218 229 208 191 218 223 204 200 215 257 267 286 302 305 299 290 286 294 302 306 309 309 309 309 308 308 308 308 307 308
204 201 201 201 198 198 201 200 195 193 196 193 187 184 179 188 210 221 223 227 223 216 218 215 211 219 212 198 219 221 179 186 202 199 194 188 176 166 159 154 143 134 155 179 218 231 207 179 211 229 238 257 268 272 278 287 296 297 292 287 292 304 309 310 310 310 310 310 309 309 309 309 309 309
204 202 202 205 202 195 198 203 195 187 187 182 172 171 179 193 208 217 220 223 222 220 221 217 217 224 226 228 237 241 218 198 192 179 169 159 161 167 169 169 159 140 147 165 183 242 233 192 266 283 281 266 249 260 266 269 283 295 296 295 298 302 306 310 312 314 315 315 315 315 315 315 315 314
201 195 195 202 202 193 199 207 199 186 179 171 163 164 168 169 171 178 190 201 205 209 213 213 212 216 220 220 219 215 201 187 183 187 184 174 182 192 189 179 163 140 148 174 151 253 237 232 285 280 267 256 254 255 239 237 295 317 314 309 307 308 313 321 325 326 325 324 324 325 325 323 322 322
200 195 191 191 189 193 206 210 201 191 182 169 160 157 151 141 136 138 139 139 143 154 169 177 177 175 176 175 167 160 164 167 168 169 163 157 167 174 158 155 155 138 129 165 169 210 215 223 260 265 264 260 254 245 222 231 311 325 323 320 319 322 331 341 345 341 336 333 332 333 333 331 331 333
180 194 194 188 182 194 209 204 191 184 180 170 163 157 147 136 133 134 131 127 125 128 133 138 142 143 140 139 140 143 152 163 161 148 143 139 133 125 109 117 148 151 148 172 195 216 239 258 268 281 288 276 247 217 218 277 310 315 320 325 324 326 338 350 353 347 341 337 335 336 338 340 342 345
145 173 193 189 184 192 194 182 175 174 171 168 164 157 148 142 140 138 134 130 127 125 127 129 130 130 128 129 133 139 150 160 156 147 149 139 123 122 133 155 170 149 133 167 185 188 302 277 255 266 280 278 272 259 266 298 310 316 326 332 330 331 339 348 346 339 336 335 334 336 339 343 349 353
106 132 172 180 183 183 175 170 169 168 165 163 161 159 156 151 148 142 136 133 129 125 126 124 118 115 114 116 124 131 138 141 138 138 145 138 131 132 132 140 159 130 125 169 182 166 204 236 237 259 259 260 274 280 289 300 303 316 331 333 335 335 336 337 336 334 332 330 331 336 340 341 344 347
83 107 135 151 165 170 168 168 168 165 163 160 156 159 161 153 144 137 132 132 130 125 124 120 113 109 106 106 113 119 119 121 123 129 138 144 148 151 145 134 119 103 109 176 177 158 195 225 219 262 262 260 273 281 288 294 298 333 336 332 333 332 329 329 329 330 331 326 325 335 340 339 339 342
90 99 113 130 149 158 158 159 159 159 159 156 150 151 150 142 133 129 128 130 129 123 120 115 109 106 104 102 102 100 99 106 115 122 128 128 126 137 146 143 126 104 94 102 132 133 155 191 154 272 287 290 290 286 288 297 314 334 335 333 331 327 325 327 326 326 327 325 323 331 336 337 341 344
100 100 107 117 133 142 141 139 138 137 137 136 137 140 139 131 125 123 121 118 115 108 101 98 93 87 86 88 86 86 92 102 108 111 113 112 110 111 119 132 140 128 111 98 91 95 93 109 113 344 307 296 300 305 314 320 322 328 333 335 330 326 325 326 326 325 326 326 325 329 331 334 340 343
99 102 107 110 114 120 124 125 123 121 121 124 127 132 132 127 120 118 117 116 112 102 95 94 89 81 81 86 89 91 92 91 91 97 100 101 105 108 106 106 112 112 105 95 83 76 65 48 29 333 287 275 294 315 321 318 316 325 338 335 328 325 326 328 330 331 332 332 333 336 340 338 336 336
98 100 103 104 104 107 111 114 113 113 115 119 119 121 126 126 122 119 117 117 113 104 99 98 95 91 91 95 94 88 82 79 79 84 95 100 102 107 109 105 99 93 88 82 72 66 60 52 32 345 306 279 281 318 328 318 309 313 328 333 328 326 330 337 341 341 343 342 339 342 350 347 335 334
91 90 92 95 96 97 100 104 106 107 109 108 104 101 102 107 113 116 116 114 110 104 102 101 100 101 101 99 95 84 76 78 78 77 92 108 110 116 121 118 112 108 101 87 74 65 60 60 49 358 336 318 317 332 321 305 303 314 326 332 330 331 339 348 353 355 356 353 348 349 354 346 334 334
86 86 85 85 85 85 86 88 90 93 96 96 95 93 91 91 96 104 109 109 106 105 105 101 96 97 100 100 98 90 80 77 74 74 89 104 114 128 135 131 129 129 124 111 89 69 60 57 59 42 15 355 352 341 316 301 306 321 325 328 332 341 352 358 0 2 360 357 356 360 359 351 342 340
87 86 82 77 74 74 74 74 74 76 81 86 89 91 93 95 96 99 103 106 106 108 109 104 95 92 93 93 92 88 82 77 74 77 87 96 109 124 128 123 117 113 113 111 94 69 56 46 50 74 70 58 33 357 329 314 321 330 331 334 339 349 359 1 359 0 359 355 353 357 2 1 357 349
84 81 78 74 73 75 75 75 76 77 80 85 88 91 97 102 104 105 106 108 110 112 112 111 109 106 99 90 83 82 83 81 78 78 80 84 93 100 100 99 94 81 80 87 73 56 46 32 40 162 152 147 123 52 20 354 336 333 338 345 348 349 352 350 346 351 356 353 349 353 6 12 9 1
81 79 79 78 79 83 84 85 88 92 94 96 97 99 102 105 108 110 110 111 113 115 113 113 116 116 112 104 96 91 88 83 77 73 76 81 89 92 91 93 94 88 84 80 66 52 40 19 340 225 199 199 193 149 85 46 11 348 338 340 345 343 338 332 331 338 347 351 356 1 4 8 15 17
78 80 82 84 86 89 91 93 97 101 103 105 107 108 108 110 114 116 117 120 122 120 116 114 112 111 110 108 105 100 95 92 86 80 81 85 88 92 93 94 98 101 98 85 64 45 36 24 359 319 279 262 241 183 117 67 27 7 349 335 333 332 329 324 327 338 349 356 9 16 10 8 19 23
79 80 79 82 86 90 94 100 104 105 106 108 110 110 110 112 116 119 123 128 128 124 121 118 114 109 104 101 101 100 98 97 95 90 89 92 94 97 98 98 98 99 94 85 68 46 37 35 13 348 321 301 295 162 120 96 48 24 14 354 338 335 338 338 339 351 3 8 17 26 24 20 21 20
77 77 76 78 83 90 98 104 106 107 108 108 109 108 106 106 110 116 121 124 122 119 116 114 111 108 105 103 105 106 105 103 100 93 89 89 91 93 93 88 83 80 71 67 71 62 45 33 18 9 2 339 334 359 78 99 60 30 15 7 359 350 353 359 358 359 9 18 21 25 31 35 33 30
70 74 79 82 85 91 98 102 103 105 108 108 108 109 108 110 114 117 117 116 113 111 111 111 109 105 101 99 101 101 100 98 96 92 88 85 84 85 84 79 74 74 67 55 48 45 36 23 10 4 4 5 9 7 354 358 28 22 359 5 19 16 7 8 6 3 10 14 7 11 48 58 47 44
74 76 80 83 91 100 103 106 109 111 113 112 111 111 111 113 114 114 113 111 110 110 110 109 108 104 99 98 101 101 97 93 91 88 84 79 76 73 72 73 70 69 66 52 34 23 24 17 8 8 24 39 30 5 328 8 50 52 12 4 11 14 19 26 13 4 6 0 353 5 58 69 53 70
79 78 81 88 98 106 107 110 114 115 114 112 111 110 111 113 115 118 118 115 113 113 110 105 101 99 98 99 102 103 99 95 92 91 89 89 85 71 54 56 64 61 57 48 35 26 25 18 12 25 70 80 0 330 333 47 47 45 33 5 355 4 24 50 48 26 16 5 0 11 31 31 34 57
75 73 83 97 108 113 115 116 118 118 116 115 113 112 113 116 118 120 119 114 110 111 109 106 103 102 99 95 95 98 98 94 90 86 81 86 92 79 57 56 60 49 41 48 48 42 35 28 22 29 57 38 358 10 42 48 42 39 35 25 5 3 18 35 45 47 41 33 28 27 22 13 14 26
64 63 85 108 116 119 120 122 122 121 120 120 120 118 119 120 119 117 115 112 109 108 107 104 103 101 99 95 93 93 94 92 90 86 75 67 67 66 61 60 57 44 43 58 63 58 52 47 44 47 51 42 31 38 45 37 34 35 31 29 31 18 354 8 23 30 30 31 33 31 24 15 11 12
58 64 101 118 123 124 124 124 126 126 125 125 123 122 123 122 119 117 116 112 108 106 103 103 103 103 100 97 93 90 88 89 87 86 82 72 63 61 61 66 69 62 58 62 63 60 59 56 51 50 53 51 49 54 48 25 19 25 24 18 15 9 354 347 353 353 348 355 5 10 13 16 10 3
65 90 117 122 124 126 125 125 127 127 129 129 127 124 122 119 116 116 115 111 108 107 105 101 100 97 90 90 91 87 83 84 81 73 68 67 67 67 66 76 84 74 61 54 54 55 57 60 60 60 57 52 49 52 47 29 19 22 24 19 10 9 7 356 343 332 303 292 4 6 5 5 3 3